KSME Airport (Lake Cumberland Rgnl) Information

FAA: SME - ICAO: KSME

KSME Airport Location

State Kentucky
County Pulaski
City Somerset
KSME Airport is 3 miles south of Somerset, KY.
Latitude 37-03-12.9000N
Longitude 084-36-56.3000W
Elevation 927ft

KSME Airport METARs

METAR KSME 251715Z AUTO 20003KT 10SM BKN011 BKN028 OVC041 17/15 A2976 RMK AO2
Altimeter 29.76"
Temperature 17.0°C (62.6°F)
Wind 200° at 3KT
Clouds broken at 1,100ft broken at 2,800ft overcast at 4,100ft
Visibility 10.0mi
Time observed: 2021-10-25T17:15:00Z

KSME Airport Details

Status Operational
Activation August 1952
Ownership Public
Usage Public
Chart CINCINNATI
ATC on-site No
Beacon schedule sunset-sunrise
Beacon color clear green

KSME Airport Contacts

Owner SOMERSET-PULASKI COUNTY
Owner address 500 W.O. NEWELL DRIVE, SOMERSET, KY 42501
Owner phone 606-679-7908
Manager GREGORY PRIDDY
Manager address 2000 ASHLAND DRIVE, RUSSELL, KY 41169
Manager phone 606-833-6203

KSME Airport (Lake Cumberland Rgnl) Radio Frequencies

KSME (Airport) Radio Frequencies

UNICOM 122.8
Common traffic advisory frequency (CTAF) 122.8